Weather History for CYBW - February, 2013

Change the Weather History Date:

Thursday, February 21, 2013

  Actual Average Record
Temperature  
Mean Temperature 19 °F -  
Max Temperature 37 °F 32 °F 50 °F (2008)
Min Temperature 1 °F 12 °F -11 °F (2003)
Degree Days  
Heating Degree Days 46    
Moisture  
Dew Point 10 °F    
Average Humidity 62    
Maximum Humidity 93    
Minimum Humidity 27    
Precipitation  
Precipitation 0.00 in - - ()
Sea Level Pressure  
Sea Level Pressure 29.90 in    
Wind  
Wind Speed 7 mph ()    
Max Wind Speed 20 mph    
Max Gust Speed 25 mph    
Visibility 15.0 miles    
Events      
Averages and records for this station are not official NWS values.
T = Trace of Precipitation, MM = Missing Value Source: Averaged Metar Reports

Daily Weather History Graph

Daily Weather History Graph

Search for Another Location

Airport or City:

Trip Planner

Search our weather history database for the weather conditions in past years. The results will help you decide how hot, cold, wet, or windy it might be!

Date:

Astronomy

Feb. 21, 2013 Rise Set
Actual Time 7:37 AM MST 6:05 PM MST
Civil Twilight 7:04 AM MST 6:38 PM MST
Nautical Twilight 6:25 AM MST 7:17 PM MST
Astronomical Twilight 5:47 AM MST 7:55 PM MST
Moon 2:06 PM MST (2/21) 5:03 AM MST (2/21)
Length of Visible Light 11h 34m
Length of Day
10h 27m
Waxing Gibbous, 84% of the Moon is Illuminated
Feb 21
Waxing Gibbous
Feb 25
Full
Mar 4
Last Quarter
Mar 11
New
Mar 19
First Quarter

Hourly Weather History & Observations

Time (MST) Temp. Windchill Dew Point Humidity Pressure Visibility Wind Dir Wind Speed Gust Speed Precip Events Conditions
5:00 AM 5 °F - 1 °F 77% 29.98 in 15 mi NW 6.9 mph - -   Clear
5:00 AM 5.0 °F -6.9 °F 1.4 °F 85% 29.98 in 15.0 mi NW 6.9 mph - N/A   Clear
6:00 AM 5.0 °F - 1.4 °F 85% 29.98 in 15.0 mi WNW 2.3 mph - N/A   Clear
7:00 AM 5.0 °F -4.1 °F 3.2 °F 92% 29.98 in 25.0 mi WNW 4.6 mph - N/A   Partly Cloudy
8:00 AM 8.6 °F - 5.0 °F 85% 29.96 in 30.0 mi Calm Calm - N/A   Mostly Cloudy
9:00 AM 14.0 °F 8.2 °F 12.2 °F 93% 29.94 in 30.0 mi NW 3.5 mph - N/A   Mostly Cloudy
10:00 AM 19.4 °F 11.5 °F 17.6 °F 93% 29.94 in 30.0 mi NW 5.8 mph - N/A   Mostly Cloudy
11:00 AM 26 °F - 23 °F 83% 29.91 in 28 mi West 2.3 mph - -   Mostly Cloudy
11:00 AM 24.8 °F 20.5 °F 23.0 °F 93% 29.91 in 30.0 mi NW 3.5 mph - N/A   Mostly Cloudy
11:18 AM 30.2 °F 20.8 °F 19.4 °F 64% 29.89 in 30.0 mi West 11.5 mph - N/A   Mostly Cloudy
12:00 PM 35.6 °F 27.5 °F 12.2 °F 38% 29.87 in 30.0 mi West 11.5 mph 19.6 mph N/A   Mostly Cloudy
1:00 PM 35.6 °F 26.2 °F 8.6 °F 33% 29.86 in 30.0 mi West 15.0 mph 21.9 mph N/A   Mostly Cloudy
2:00 PM 37.4 °F 28.2 °F 8.6 °F 30% 29.84 in 30.0 mi West 16.1 mph 25.3 mph N/A   Mostly Cloudy
3:00 PM 37.4 °F 27.2 °F 8.6 °F 30% 29.84 in 30.0 mi West 19.6 mph - N/A   Mostly Cloudy
5:00 PM 31 °F - 10 °F 27% 29.85 in 28 mi West 9.2 mph - -   Scattered Clouds
5:00 PM 32.0 °F 24.8 °F 10.4 °F 41% 29.85 in 30.0 mi West 8.1 mph - N/A   Mostly Cloudy
6:00 PM 30.2 °F 18.5 °F 8.6 °F 40% 29.86 in 30.0 mi West 17.3 mph - N/A   Mostly Cloudy
7:00 PM 24.8 °F 13.4 °F 8.6 °F 50% 29.87 in 15.0 mi West 12.7 mph - N/A   Scattered Clouds
8:00 PM 26.6 °F 15.7 °F 8.6 °F 47% 29.86 in 15.0 mi West 12.7 mph - N/A   Mostly Cloudy
9:00 PM 23.0 °F 11.7 °F 6.8 °F 50% 29.86 in 15.0 mi West 11.5 mph - N/A   Partly Cloudy
10:00 PM 19.4 °F 8.6 °F 6.8 °F 58% 29.86 in 15.0 mi West 9.2 mph - N/A   Clear